Location: Buisson
(44.2787°N, 4.9969°E)
Time: 07:15:07
(UTC+00:00)

Cosmos 1125 Rocket - Pass Details

Date: 18 April 2021
Orbit: 758 x 779 km, 74.0° (Epoch: 06 May)

Event Time Altitude Azimuth Distance (km) Brightness Sun altitude
Rises 03:51:38 0° 189° (S) 3,243 6.4 -10.8°
Reaches altitude 10° 03:54:01 10° 186° (S) 2,318 5.7 -10.4°
Maximum altitude 03:59:13 63° 107° (ESE) 866 4.0 -9.5°
Drops below altitude 10° 04:04:25 10° 27° (NNE) 2,322 6.8 -8.7°
Sets 04:06:49 0° 24° (NNE) 3,250 7.6 -8.3°
